Terug naar catalogus

STARLINK-35610

ActiefCommunicatieVLEO
NORAD 66428·PAYLOAD·🇺🇸 United States

Gelanceerd Nov 11, 2025 vanaf Cape Canaveral Space Force Station

Loading…

Volgende Passages (komende 24 uur)

TLE

VersSource: CelesTrak SupGP

Epoch: Sep 15, 2026, 02:44 UTC

1 66428C 25259G   26258.11437500  .00010040  00000+0  36353-3 0  2588
2 66428  43.0020 284.4934 0001315 263.8180  48.8761 15.27582702    13

Volg STARLINK-35610 in realtime met AllMySat

Download on the App Store